DW1009 Weather Reports


Display with metric or nautical units.
time (UTC)temp
F
wind
direction
speed
MPH
gust
MPH
rain 1hr
in
rain 24hr
in
rain mn
in
humidity
%
barometer
mb
20260503221407 65 146 0.0 8.0 0.00 0.00 0.00 75 1011.6
20260503220408 65 263 4.0 6.0 0.00 0.00 0.00 74 1011.7
20260503213407 64 237 7.0 10.0 0.00 0.00 0.00 74 1011.9
20260503212407 66 222 5.0 9.0 0.00 0.00 0.00 72 1011.9
20260503211408 66 331 2.0 7.0 0.00 0.00 0.00 71 1011.9
20260503210407 66 263 2.0 7.0 0.00 0.00 0.00 71 1012.1
20260503205407 66 275 3.0 9.0 0.00 0.00 0.00 72 1012.1
20260503204407 66 346 2.0 8.0 0.00 0.00 0.00 73 1012.0
20260503203407 66 296 3.0 7.0 0.00 0.00 0.00 73 1012.1
20260503202407 66 242 4.0 7.0 0.00 0.00 0.00 73 1012.1
20260503201407 65 251 2.0 8.0 0.00 0.00 0.00 72 1012.1
20260503200408 65 232 4.0 7.0 0.00 0.00 0.00 74 1012.1
20260503195407 64 254 3.0 7.0 0.00 0.00 0.00 74 1012.1
20260503194408 64 232 4.0 6.0 0.00 0.00 0.00 75 1012.3
20260503193408 65 280 3.0 7.0 0.00 0.00 0.00 74 1012.4
20260503191408 65 288 3.0 7.0 0.00 0.00 0.00 74 1012.7
20260503190407 65 224 2.0 7.0 0.00 0.00 0.00 74 1012.6
20260503185407 65 301 2.0 7.0 0.00 0.00 0.00 75 1012.6
20260503184406 65 294 2.0 7.0 0.00 0.00 0.00 75 1012.7
20260503183407 64 209 2.0 6.0 0.00 0.00 0.00 77 1012.7
20260503181407 63 238 3.0 6.0 0.00 0.00 0.00 79 1012.7
20260503175407 63 219 3.0 5.0 0.00 0.00 0.00 81 1012.6
20260503174407 62 250 3.0 5.0 0.00 0.00 0.00 81 1012.6
20260503173407 62 233 2.0 4.0 0.00 0.00 0.00 82 1012.9
20260503172406 62 232 2.0 7.0 0.00 0.00 0.00 82 1012.7
20260503170407 62 296 2.0 4.0 0.00 0.00 0.00 82 1012.5
20260503150407 61 277 1.0 3.0 0.00 0.00 0.00 86 1011.9
20260503130406 60 325 3.0 5.0 0.00 0.00 0.00 87 1010.8
20260503110406 61 238 1.0 2.0 0.00 0.00 0.00 87 1010.7
20260503090406 61 257 0.0 2.0 0.00 0.00 0.00 85 1010.9
20260503081405 61 288 0.0 3.0 0.00 0.00 0.00 86 1011.1
20260503080405 60 229 2.0 4.0 0.00 0.00 0.00 86 1011.0
20260503072405 60 172 1.0 3.0 0.00 0.00 0.00 88 1010.9
20260503070406 60 202 2.0 4.0 0.00 0.00 0.00 89 1010.8
20260503054405 60 272 2.0 3.0 0.00 0.00 0.00 92 1010.8
20260503053406 60 348 3.0 4.0 0.00 0.00 0.00 92 1010.9
20260503051405 60 261 1.0 4.0 0.00 0.00 0.00 92 1011.1
20260503050405 60 295 2.0 3.0 0.00 0.00 0.00 93 1011.0
20260503045405 60 243 2.0 5.0 0.00 0.00 0.00 93 1011.0
20260503044406 60 232 2.0 5.0 0.00 0.00 0.00 93 1010.8
20260503042405 60 205 0.0 6.0 0.00 0.00 0.00 93 1010.4
20260503041405 60 225 2.0 5.0 0.00 0.00 0.00 92 1010.3
20260503035405 60 347 1.0 4.0 0.00 0.00 0.00 93 1010.0
20260503034406 60 319 1.0 5.0 0.00 0.00 0.00 92 1010.0
20260503033406 60 248 3.0 6.0 0.00 0.00 0.00 92 1009.8
20260503031405 61 199 1.0 6.0 0.00 0.00 0.00 91 1009.5
20260503030404 61 259 1.0 4.0 0.00 0.00 0.00 90 1009.4
20260503024405 61 283 2.0 5.0 0.00 0.00 0.00 89 1008.8
20260503023405 61 286 2.0 6.0 0.00 0.00 0.00 89 1008.7
20260503022405 61 236 5.0 8.0 0.00 0.00 0.00 89 1008.7
20260503021405 62 239 1.0 5.0 0.00 0.00 0.00 88 1008.7
20260503020404 62 225 3.0 6.0 0.00 0.00 0.00 87 1008.7
20260503015404 62 200 2.0 5.0 0.00 0.00 0.00 87 1008.8
20260503014405 63 212 2.0 6.0 0.00 0.00 0.00 86 1008.9
20260503013405 63 267 3.0 8.0 0.00 0.00 0.00 85 1008.8
20260503012404 63 215 2.0 8.0 0.00 0.00 0.00 85 1008.9
20260503011405 64 233 5.0 7.0 0.00 0.00 0.00 84 1008.7
20260503010405 64 234 2.0 7.0 0.00 0.00 0.00 84 1008.8
20260503005405 64 291 3.0 6.0 0.00 0.00 0.00 83 1008.8
20260503004406 64 232 2.0 7.0 0.00 0.00 0.00 83 1008.7
20260503001404 64 281 2.0 9.0 0.00 0.00 0.00 83 1008.8
20260503000404 64 240 4.0 8.0 0.00 0.00 0.00 83 1008.9
20260502235405 64 43 2.0 8.0 0.00 0.00 0.00 83 1008.9
20260502234405 64 257 8.0 8.0 0.00 0.00 0.00 83 1008.9
20260502233404 64 227 6.0 9.0 0.00 0.00 0.00 83 1009.0
20260502232404 64 279 2.0 7.0 0.00 0.00 0.00 83 1009.0
20260502231405 64 244 1.0 9.0 0.00 0.00 0.00 83 1009.1
20260502230404 65 332 4.0 8.0 0.00 0.00 0.00 82 1009.2
20260502225405 65 294 4.0 8.0 0.00 0.00 0.00 81 1009.1
20260502224404 65 257 3.0 8.0 0.00 0.00 0.00 81 1009.5
20260502222404 65 269 1.0 10.0 0.00 0.00 0.00 82 1010.1